Other Public Products
Issued by NWS Grand Forks, ND

Home | Current Version | Previous Version | Text Only | Print | Product List | Glossary Off
Versions: 1 2 3 4 5 6 7 8 9 10 11 12 13 14 15 16 17 18 19 20 21 22 23 24 25 26 27 28 29 30 31 32 33 34 35 36 37 38 39 40 41 42 43 44 45 46 47 48 49 50

000
FPUS83 KFGF 032031
OPUFGF
PRAIRIE TO PINES WEATHER ROUNDUP
NATIONAL WEATHER SERVICE EASTERN NORTH DAKOTA/GRAND FORKS ND
200 PM CST SAT DEC 03 2016

 **SATELLITE DATA USED TO AUGMENT SKY COVER AT AUTOMATED STATIONS**
 *****  WEATHER ACROSS EASTERN NORTH DAKOTA  *****

CITY           SKY/WX    TMP DP  RH WIND       PRES   REMARKS
GRAND FORKS    CLOUDY    30  22  72 S15G23    30.07F WCI  19
GRAND FORKS AF CLOUDY    29  24  80 S18G25    30.06S WCI  17
GRAND CITY NWS   N/A     30 N/A N/A SE18        N/A  WCI  18
BUXTON           N/A     44  41  87 SE16        N/A
DEVILS LAKE    CLOUDY    31  27  85 S23G29    29.93F WCI  18
FARGO          PTSUNNY   33  25  72 S16       30.07F WCI  23
WAHPETON ARPT  CLOUDY    32  27  80 SE18      30.08F WCI  20
$$

 *****  WEATHER ACROSS CENTRAL AND WESTERN NORTH DAKOTA  *****

CITY           SKY/WX    TMP DP  RH WIND       PRES   REMARKS
JAMESTOWN      MOSUNNY   32  28  85 SE15      29.96F WCI  22
BISMARCK       MOSUNNY   29  25  85 S5        29.89F WCI  24
MINOT          MOSUNNY   29  24  82 S9        29.81F WCI  20
MINOT AFB      SUNNY     27  22  84 S14       29.80F WCI  15
GARRISON         N/A     27  22  81 S15       29.84F WCI  15
WILLISTON      CLOUDY    32  26  78 S8        29.76F WCI  25
DICKINSON      CLOUDY    29  23  78 W10       29.78F WCI  20
HETTINGER      CLOUDY    28  22  78 CALM      29.84F
$$

 *****  OTHER OBSERVATIONS NORTHEAST NORTH DAKOTA  *****

CITY           SKY/WX    TMP DP  RH WIND       PRES   REMARKS
WALHALLA         N/A     28  28 100 S24G30    30.00F WCI  14
LANGDON        CLOUDY    30  28  93 S22       29.95F WCI  17
CAVALIER         N/A     28  27  93 S17G28    30.02F WCI  16
GRAFTON        CLOUDY    28  25  86 S16G26    30.07F WCI  17
CANDO          CLOUDY    32  28  86 S22G28    29.93F WCI  19
FORT TOTTEN      N/A     31  29  92 S15       29.95S WCI  20
ROLLA          CLOUDY    28  28 100 S20G26    29.88F WCI  15
RUGBY            N/A     28  27  93 S13G21    29.88F WCI  18
 ***** THE ABOVE OBSERVATIONS ARE NON NWS ARE NOT QUALITY
        CONTROLLED AND MAY MIS-REPORT RAIN FOR SNOW...
$$

 *****  OTHER OBSERVATIONS SOUTHEAST NORTH DAKOTA *****

CITY           SKY/WX    TMP DP  RH WIND       PRES   REMARKS
COOPERSTOWN    CLOUDY    32  28  86 SE18G28   29.98F WCI  20
VALLEY CITY    FLURRIES  30  30 100 SE20G26   30.00F WCI  18
OAKES          NOT AVBL
GWINNER          N/A     32  30  93 SE18      30.02F WCI  20
SHEYENNE NWR     N/A     32  26  78 SE15      29.95S WCI  22
BUFFALO          N/A     31  25  78 N16         N/A  WCI  19
WYNDMERE         N/A     32  28  86 SE17        N/A  WCI  21
 ***** THE ABOVE OBSERVATIONS ARE NON NWS ARE NOT QUALITY
       CONTROLLED AND MAY MIS-REPORT RAIN FOR SNOW...
$$

  *****  WEATHER ACROSS NORTHERN MINNESOTA  *****

CITY           SKY/WX    TMP DP  RH WIND       PRES   REMARKS
FLAG ISLAND    CLOUDY    27  23  86 S15       30.11F WCI  15
WARROAD        CLOUDY    27  21  80 S10       30.12F WCI  17
ROSEAU         CLOUDY    27  21  80 S10       30.10F WCI  17
HALLOCK        CLOUDY    28  25  86 S20G25    30.07S WCI  15
THF RVR FALLS  CLOUDY    27  20  75 SE15      30.11F WCI  15
HALSTAD          N/A     32  25  76 S15         N/A  WCI  21
FOSSTON        MOSUNNY   30  25  80 SE12      30.10F WCI  21
BAUDETTE       CLOUDY    26  19  74 S12       30.14F WCI  16
WASKISH        CLOUDY    27  21  80 S7        30.14F WCI  19
CROOKSTON      CLOUDY    30  23  74 S15       30.09F WCI  19
$$
  *****  WEATHER ACROSS CENTRAL AND WEST MINNESOTA  *****

CITY           SKY/WX    TMP DP  RH WIND       PRES   REMARKS
BEMIDJI        CLOUDY    25  19  77 S13       30.13S WCI  14
PARK RAPIDS    CLOUDY    27  17  66 SE14      30.13F WCI  16
WADENA         SUNNY     28  19  69 SE10      30.11F WCI  19
DETROIT LAKES  SUNNY     30  23  74 SE15      30.09F WCI  19
MOORHEAD       SUNNY     30  25  80 S16       30.09F WCI  19
FERGUS FALLS   PTSUNNY   30  23  74 SE15      30.14S WCI  19
ELBOW LAKE     CLOUDY    31  25  79 SE16      30.11S WCI  20
MORRIS MN      CLOUDY    32  27  80 SE17      30.11F WCI  21
STAPLES        SUNNY     27  18  69 SE6       30.13F WCI  20
WHEATON        CLOUDY   N/A N/A N/A SE20      30.11F
$$
  *****  WEATHER ELSEWHERE ACROSS MINNESOTA  *****

CITY           SKY/WX    TMP DP  RH WIND       PRES   REMARKS
DULUTH         FLURRIES  29  23  78 S7        30.20F WCI  22
INTRNTL FALLS  CLOUDY    26  19  74 VRB5      30.17F WCI  20
ELY            CLOUDY    25  23  93 CALM      30.19S
CLOQUET        CLOUDY    28  19  69 S3        30.19F
BRAINERD       CLOUDY    26  18  71 S8        30.17F WCI  18
HIBBING        CLOUDY    27  19  72 S5        30.19S WCI  22
ALEXANDRIA     SUNNY     30  22  72 SE14      30.13F WCI  19
SAINT CLOUD    SUNNY     30  21  69 S10       30.19F WCI  21
MINNEAPOLIS    MOSUNNY   32  20  61 SE8       30.23F WCI  25
$$

  *****  WEATHER ACROSS SOUTH DAKOTA  *****

CITY           SKY/WX    TMP DP  RH WIND       PRES   REMARKS
SIOUX FALLS    LGT SNOW  35  33  92 S14G24    30.12F FOG
BROOKINGS      MOSUNNY   34  29  82 S17       30.08  WCI  23
WATERTOWN      PTSUNNY   33  29  85 S15       30.03F WCI  23
HURON          CLOUDY    35  34  96 SE16G25   30.01R
SISSETON         N/A     32  27  81 S17       30.06F WCI  21
ABERDEEN       MIX PCPN  34  29  82 S16       29.99F WCI  24
MITCHELL       CLOUDY    35  34  96 SE20      30.04F WCI  24
PIERRE         SUNNY     38  28  67 S9        29.91F
MOBRIDGE       SUNNY     37  29  72 S12       29.87F
RAPID CITY     CLOUDY    41  22  46 N14       29.86F
$$

  *****  SOME WEATHER IN NEARBY STATES *****

CITY           SKY/WX    TMP DP  RH WIND       PRES   REMARKS
GLASGOW MT     CLOUDY    40  26  57 W24       29.74R
GREAT FALLS MT MOSUNNY   41  23  48 W15       29.89R
CHEYENNE WY    SUNNY     34   8  33 W28G36    29.92F WCI  21
SCOTTSBLUFF NE CLOUDY    43  11  27 W12G23    29.94F
OMAHA NE       LGT SNOW  33  30  88 SE5       30.22F VSB 3/4
DES MOINES IA  CLOUDY    41  30  65 S8        30.25F
DAVENPORT IA   CLOUDY    38  26  62 SW8       30.31F
CHICAGO IL     CLOUDY    33  23  66 W7        30.32F
EAU CLAIRE WI  CLOUDY    31  22  69 CALM      30.26F
LA CROSSE WI   CLOUDY    34  24  67 SE5       30.28F
$$

  *****  SOME NATIONAL WEATHER *****

CITY           SKY/WX    TMP DP  RH WIND       PRES   REMARKS
LA GUARDIA NY  MOSUNNY   49  28  44 NW26G36   30.03R
RALEIGH NC     PTSUNNY   53  26  35 NW6       30.24R
ATLANTA GA     CLOUDY    56  27  32 SE3       30.21R
NEW ORLEANS LA CLOUDY    63  53  70 E17G31    30.00F
OKLAHOMA CITY  LGT RAIN  45  43  93 E12       30.07F
ALBUQUERQUE NM MOSUNNY   45  27  49 N5        30.02F
SALT LAKE CITY CLOUDY    33  21  61 SE7       30.28F
LOS ANGELES CA SUNNY     65  24  21 VRB5      30.09F
BOISE ID       CLOUDY    42  26  53 CALM      30.27F
SEATTLE WA     CLOUDY    47  41  80 S14G23    30.28F
$$

*** WEATHER ACROSS MANITOBA...SASKATCHEWAN AND ONTARIO ***
                ***ONTARIO***

CITY           SKY/WX    TMP DP  RH WIND       PRES   REMARKS
GERALDTON      FLURRIES  23  18  80 CALM      30.22S
THUNDER BAY    PTSUNNY   32  21  64 CALM      30.23F
SIOUX LOOKOUT  FLURRIES  23  18  80 SW7       30.17F WCI  15
TORONTO        CLOUDY    39  23  52 NW20      30.17R
BIG TROUT LK   CLOUDY    19  19 100 S9        30.19S WCI   9
PICKLE LAKE    FRZ DRZL  21  18  86 S9        30.17S WCI  11
DRYDEN         CLOUDY    23  19  86 S5        30.14F WCI  17
KENORA         FLURRIES  27  21  80 S8        30.11  WCI  18
$$
                *** MANITOBA***

CITY           SKY/WX    TMP DP  RH WIND       PRES   REMARKS
BRANDON        PTSUNNY   30  27  86 SE16G22   29.86F WCI  19
DAUPHIN        MOSUNNY   30  25  80 SE7       29.82F WCI  23
ISLAND LAKE    FLURRIES  12  10  92 SE8       30.11F WCI   1
PILOT MOUND      N/A     27  27 100 S22         N/A  WCI  12
THE PAS        FLURRIES  28  27  93 SE9       29.80F WCI  20
THOMPSON       FLURRIES  19  18  93 SE6       29.99  WCI  11
WINNIPEG       CLOUDY    28  25  86 S24G32    30.03F WCI  14
LYNN LAKE      FLURRIES  23  23 100 SE12      29.84F WCI  12
CHURCHILL      FLURRIES  12  10  92 S8        30.09F WCI   1
GILLAM         LGT SNOW  14  10  85 SE5       30.11F WCI   6
$$
                ***SASKATCHEWAN***

CITY           SKY/WX    TMP DP  RH WIND       PRES   REMARKS
ESTEVAN        LGT SNOW  30  27  86 S10       29.72F WCI  21
KINDERSLEY     LGT SNOW  25  25 100 NW6       29.70S WCI  18
LLOYDMINSTER   CLOUDY    27  25  93 W6        29.68F FOG     WCI  20
PRINCE ALBERT  CLOUDY    28  25  86 E6        29.69F WCI  22
REGINA         PTSUNNY   32  30  93 S6        29.63
YORKTON        PTSUNNY   25  21  86 SE15G21   29.70F WCC1F1C2F2C3F3C4F4C5F5C6F6C7F7C8F8C9F9CaFaCbFbCcFcCdFdCe!



USA.gov is the U.S. government's official web portal to all federal, state and local government web resources and services.